Location: ??????????
(48.5701°N, 37.7703°E)
Time: 22:22:11
(UTC+00:00)

H-2A R/B - Pass Details

Date: 14 July 2020
Orbit: 577 x 656 km, 98.5° (Epoch: 10 August)

Event Time Altitude Azimuth Distance (km) Brightness Sun altitude
Rises 00:26:38 0° 154° (SSE) 2,926 5.3 -10.0°
Reaches altitude 10° 00:28:51 10° 150° (SSE) 2,011 4.5 -9.8°
Maximum altitude 00:33:09 60° 71° (ENE) 719 2.7 -9.3°
Drops below altitude 10° 00:37:23 10° 352° (N) 1,978 5.3 -8.8°
Sets 00:39:34 0° 349° (N) 2,874 6.0 -8.6°
